Location: Unspecified
(0.0000°N, 0.0000°E)
Time: 20:59:22
(UTC+00:00)

GONETS M 09 (M19) - Visible Passes

Search period start: 22 February 2018 00:00
Search period end: 04 March 2018 00:00
Orbit: 1478 x 1511 km, 82.5° (Epoch: 21 February)

Date Brightness Start Highest point End Pass type
(mag) Time Alt. Az. Time Alt. Az. Time Alt. Az.
22 Feb ? 03:27:23 10° NNE 03:35:53 53° E 03:44:21 10° SSE visible
22 Feb ? 05:26:39 10° NW 05:32:17 19° W 05:37:57 10° SW visible
23 Feb ? 02:42:33 17° NE 02:46:42 24° E 02:53:14 10° SE visible
23 Feb ? 04:38:41 26° NW 04:43:05 44° W 04:51:17 10° SSW visible
24 Feb ? 03:51:50 59° N 03:53:54 89° E 04:02:43 10° S visible
25 Feb ? 03:04:35 43° E 03:04:43 43° E 03:12:50 10° SSE visible
25 Feb ? 05:00:37 24° W 05:01:07 24° W 05:07:47 10° SW visible
26 Feb ? 02:17:03 17° E 02:17:03 17° E 02:21:00 10° SE visible
26 Feb ? 04:13:05 51° WSW 04:13:05 51° WSW 04:20:25 10° SSW visible
27 Feb ? 03:25:21 50° SSE 03:25:21 50° SSE 03:31:29 10° S visible
27 Feb ? 05:21:22 11° WSW 05:21:22 11° WSW 05:21:52 10° WSW visible
28 Feb ? 02:37:31 24° SE 02:37:31 24° SE 02:41:11 10° SSE visible
28 Feb ? 04:33:31 23° SW 04:33:31 23° SW 04:37:20 10° SSW visible
01 Mar ? 03:45:34 30° SSW 03:45:34 30° SSW 03:49:27 10° S visible
02 Mar ? 02:57:31 22° SSE 02:57:31 22° SSE 03:00:08 10° SSE visible
03 Mar ? 04:05:22 15° SSW 04:05:22 15° SSW 04:06:42 10° SSW visible
